Year,Month,Day,Hour,Minute,Value (Times are PST for temperature in C)
2019,03,17,00,00,6.20
2019,03,17,00,01,6.20
2019,03,17,00,02,6.20
2019,03,17,00,03,6.20
2019,03,17,00,04,6.20
2019,03,17,00,05,6.10
2019,03,17,00,06,6.10
2019,03,17,00,07,6.10
2019,03,17,00,08,6.10
2019,03,17,00,09,6.10
2019,03,17,00,10,6.00
2019,03,17,00,11,5.90
2019,03,17,00,12,5.90
2019,03,17,00,13,5.90
2019,03,17,00,14,5.80
2019,03,17,00,15,5.80
2019,03,17,00,16,5.80
2019,03,17,00,17,5.70
2019,03,17,00,18,5.70
2019,03,17,00,19,5.70
2019,03,17,00,20,5.70
2019,03,17,00,21,5.70
2019,03,17,00,22,5.70
2019,03,17,00,23,5.70
2019,03,17,00,24,5.60
2019,03,17,00,25,5.60
2019,03,17,00,26,5.60
2019,03,17,00,27,5.60
2019,03,17,00,28,5.60
2019,03,17,00,29,5.60
2019,03,17,00,30,5.60
2019,03,17,00,31,5.50
2019,03,17,00,32,5.50
2019,03,17,00,33,5.50
2019,03,17,00,34,5.50
2019,03,17,00,35,5.50
2019,03,17,00,36,5.50
2019,03,17,00,37,5.50
2019,03,17,00,38,5.50
2019,03,17,00,39,5.60
2019,03,17,00,40,5.60
2019,03,17,00,41,5.60
2019,03,17,00,42,5.60
2019,03,17,00,43,5.60
2019,03,17,00,44,5.70
2019,03,17,00,45,5.70
2019,03,17,00,46,5.70
2019,03,17,00,47,5.70
2019,03,17,00,48,5.70
2019,03,17,00,49,5.70
2019,03,17,00,50,5.70
2019,03,17,00,51,5.70
2019,03,17,00,52,5.70
2019,03,17,00,53,5.70
2019,03,17,00,54,5.70
2019,03,17,00,55,5.70
2019,03,17,00,56,5.70
2019,03,17,00,57,5.70
2019,03,17,00,58,5.70
2019,03,17,00,59,5.70
2019,03,17,01,00,5.70
2019,03,17,01,01,5.70
2019,03,17,01,02,5.70
2019,03,17,01,03,5.70
2019,03,17,01,04,5.70
2019,03,17,01,05,5.80
2019,03,17,01,06,5.80
2019,03,17,01,07,5.80
2019,03,17,01,08,5.90
2019,03,17,01,09,5.90
2019,03,17,01,10,5.90
2019,03,17,01,11,5.80
2019,03,17,01,12,5.80
2019,03,17,01,13,5.80
2019,03,17,01,14,5.70
2019,03,17,01,15,5.70
2019,03,17,01,16,5.60
2019,03,17,01,17,5.60
2019,03,17,01,18,5.50
2019,03,17,01,19,5.50
2019,03,17,01,20,5.40
2019,03,17,01,21,5.30
2019,03,17,01,22,5.20
2019,03,17,01,23,5.20
2019,03,17,01,24,5.10
2019,03,17,01,25,5.10
2019,03,17,01,26,5.00
2019,03,17,01,27,5.00
2019,03,17,01,28,5.00
2019,03,17,01,29,4.90
2019,03,17,01,30,4.90
2019,03,17,01,31,4.80
2019,03,17,01,32,4.80
2019,03,17,01,33,4.70
2019,03,17,01,34,4.70
2019,03,17,01,35,4.70
2019,03,17,01,36,4.70
2019,03,17,01,37,4.70
2019,03,17,01,38,4.60
2019,03,17,01,39,4.60
2019,03,17,01,40,4.60
2019,03,17,01,41,4.50
2019,03,17,01,42,4.50
2019,03,17,01,43,4.50
2019,03,17,01,44,4.50
2019,03,17,01,45,4.50
2019,03,17,01,46,4.50
2019,03,17,01,47,4.60
2019,03,17,01,48,4.60
2019,03,17,01,49,4.60
2019,03,17,01,50,4.70
2019,03,17,01,51,4.80
2019,03,17,01,52,4.80
2019,03,17,01,53,4.90
2019,03,17,01,54,5.00
2019,03,17,01,55,5.10
2019,03,17,01,56,5.20
2019,03,17,01,57,5.40
2019,03,17,01,58,5.50
2019,03,17,01,59,5.60
2019,03,17,02,00,5.60
2019,03,17,02,01,5.70
2019,03,17,02,02,5.70
2019,03,17,02,03,5.80
2019,03,17,02,04,5.80
2019,03,17,02,05,5.90
2019,03,17,02,06,5.90
2019,03,17,02,07,6.00
2019,03,17,02,08,6.00
2019,03,17,02,09,6.10
2019,03,17,02,10,6.10
2019,03,17,02,11,6.20
2019,03,17,02,12,6.20
2019,03,17,02,13,6.20
2019,03,17,02,14,6.20
2019,03,17,02,15,6.20
2019,03,17,02,16,6.10
2019,03,17,02,17,6.10
2019,03,17,02,18,5.90
2019,03,17,02,19,5.90
2019,03,17,02,20,5.80
2019,03,17,02,21,5.70
2019,03,17,02,22,5.70
2019,03,17,02,23,5.60
2019,03,17,02,24,5.60
2019,03,17,02,25,5.60
2019,03,17,02,26,5.50
2019,03,17,02,27,5.40
2019,03,17,02,28,5.20
2019,03,17,02,29,5.10
2019,03,17,02,30,5.00
2019,03,17,02,31,4.90
2019,03,17,02,32,4.80
2019,03,17,02,33,4.70
2019,03,17,02,34,4.60
2019,03,17,02,35,4.50
2019,03,17,02,36,4.50
2019,03,17,02,37,4.40
2019,03,17,02,38,4.40
2019,03,17,02,39,4.40
2019,03,17,02,40,4.40
2019,03,17,02,41,4.40
2019,03,17,02,42,4.40
2019,03,17,02,43,4.40
2019,03,17,02,44,4.40
2019,03,17,02,45,4.40
2019,03,17,02,46,4.40
2019,03,17,02,47,4.40
2019,03,17,02,48,4.40
2019,03,17,02,49,4.40
2019,03,17,02,50,4.40
2019,03,17,02,51,4.40
2019,03,17,02,52,4.50
2019,03,17,02,53,4.60
2019,03,17,02,54,4.70
2019,03,17,02,55,4.70
2019,03,17,02,56,4.80
2019,03,17,02,57,4.80
2019,03,17,02,58,4.90
2019,03,17,02,59,4.90
2019,03,17,03,00,5.00
2019,03,17,03,01,5.00
2019,03,17,03,02,5.10
2019,03,17,03,03,5.10
2019,03,17,03,04,5.10
2019,03,17,03,05,5.20
2019,03,17,03,06,5.20
2019,03,17,03,07,5.20
2019,03,17,03,08,5.20
2019,03,17,03,09,5.10
2019,03,17,03,10,5.10
2019,03,17,03,11,5.10
2019,03,17,03,12,5.10
2019,03,17,03,13,5.00
2019,03,17,03,14,5.00
2019,03,17,03,15,5.00
2019,03,17,03,16,4.90
2019,03,17,03,17,4.90
2019,03,17,03,18,4.90
2019,03,17,03,19,4.90
2019,03,17,03,20,4.90
2019,03,17,03,21,4.90
2019,03,17,03,22,4.90
2019,03,17,03,23,4.80
2019,03,17,03,24,4.80
2019,03,17,03,25,4.80
2019,03,17,03,26,4.70
2019,03,17,03,27,4.70
2019,03,17,03,28,4.60
2019,03,17,03,29,4.60
2019,03,17,03,30,4.50
2019,03,17,03,31,4.40
2019,03,17,03,32,4.40
2019,03,17,03,33,4.30
2019,03,17,03,34,4.30
2019,03,17,03,35,4.20
2019,03,17,03,36,4.20
2019,03,17,03,37,4.10
2019,03,17,03,38,4.00
2019,03,17,03,39,4.00
2019,03,17,03,40,4.00
2019,03,17,03,41,4.00
2019,03,17,03,42,4.10
2019,03,17,03,43,4.20
2019,03,17,03,44,4.20
2019,03,17,03,45,4.30
2019,03,17,03,46,4.30
2019,03,17,03,47,4.30
2019,03,17,03,48,4.30
2019,03,17,03,49,4.30
2019,03,17,03,50,4.30
2019,03,17,03,51,4.20
2019,03,17,03,52,4.30
2019,03,17,03,53,4.30
2019,03,17,03,54,4.40
2019,03,17,03,55,4.40
2019,03,17,03,56,4.50
2019,03,17,03,57,4.50
2019,03,17,03,58,4.60
2019,03,17,03,59,4.60
2019,03,17,04,00,4.60
2019,03,17,04,01,4.60
2019,03,17,04,02,4.60
2019,03,17,04,03,4.60
2019,03,17,04,04,4.60
2019,03,17,04,05,4.60
2019,03,17,04,06,4.50
2019,03,17,04,07,4.40
2019,03,17,04,08,4.40
2019,03,17,04,09,4.30
2019,03,17,04,10,4.30
2019,03,17,04,11,4.20
2019,03,17,04,12,4.20
2019,03,17,04,13,4.10
2019,03,17,04,14,4.10
2019,03,17,04,15,4.10
2019,03,17,04,16,4.10
2019,03,17,04,17,4.20
2019,03,17,04,18,4.30
2019,03,17,04,19,4.30
2019,03,17,04,20,4.40
2019,03,17,04,21,4.40
2019,03,17,04,22,4.40
2019,03,17,04,23,4.40
2019,03,17,04,24,4.30
2019,03,17,04,25,4.20
2019,03,17,04,26,4.10
2019,03,17,04,27,4.10
2019,03,17,04,28,4.00
2019,03,17,04,29,3.90
2019,03,17,04,30,3.90
2019,03,17,04,31,3.80
2019,03,17,04,32,3.70
2019,03,17,04,33,3.70
2019,03,17,04,34,3.60
2019,03,17,04,35,3.50
2019,03,17,04,36,3.50
2019,03,17,04,37,3.40
2019,03,17,04,38,3.30
2019,03,17,04,39,3.30
2019,03,17,04,40,3.20
2019,03,17,04,41,3.10
2019,03,17,04,42,3.10
2019,03,17,04,43,3.00
2019,03,17,04,44,3.00
2019,03,17,04,45,3.00
2019,03,17,04,46,3.00
2019,03,17,04,47,3.10
2019,03,17,04,48,3.10
2019,03,17,04,49,3.10
2019,03,17,04,50,3.10
2019,03,17,04,51,3.30
2019,03,17,04,52,3.40
2019,03,17,04,53,3.60
2019,03,17,04,54,3.70
2019,03,17,04,55,3.70
2019,03,17,04,56,3.70
2019,03,17,04,57,3.70
2019,03,17,04,58,3.70
2019,03,17,04,59,3.80
2019,03,17,05,00,3.90
2019,03,17,05,01,4.00
2019,03,17,05,02,4.00
2019,03,17,05,03,4.10
2019,03,17,05,04,4.10
2019,03,17,05,05,4.10
2019,03,17,05,06,4.10
2019,03,17,05,07,4.10
2019,03,17,05,08,4.00
2019,03,17,05,09,3.90
2019,03,17,05,10,3.90
2019,03,17,05,11,3.80
2019,03,17,05,12,3.70
2019,03,17,05,13,3.60
2019,03,17,05,14,3.60
2019,03,17,05,15,3.50
2019,03,17,05,16,3.50
2019,03,17,05,17,3.50
2019,03,17,05,18,3.40
2019,03,17,05,19,3.40
2019,03,17,05,20,3.40
2019,03,17,05,21,3.40
2019,03,17,05,22,3.50
2019,03,17,05,23,3.50
2019,03,17,05,24,3.40
2019,03,17,05,25,3.40
2019,03,17,05,26,3.40
2019,03,17,05,27,3.40
2019,03,17,05,28,3.30
2019,03,17,05,29,3.30
2019,03,17,05,30,3.20
2019,03,17,05,31,3.20
2019,03,17,05,32,3.20
2019,03,17,05,33,3.10
2019,03,17,05,34,3.10
2019,03,17,05,35,3.10
2019,03,17,05,36,3.00
2019,03,17,05,37,3.00
2019,03,17,05,38,3.00
2019,03,17,05,39,2.90
2019,03,17,05,40,2.90
2019,03,17,05,41,2.80
2019,03,17,05,42,2.80
2019,03,17,05,43,2.80
2019,03,17,05,44,2.80
2019,03,17,05,45,2.80
2019,03,17,05,46,2.70
2019,03,17,05,47,2.80
2019,03,17,05,48,2.90
2019,03,17,05,49,3.00
2019,03,17,05,50,3.10
2019,03,17,05,51,3.10
2019,03,17,05,52,3.00
2019,03,17,05,53,3.00
2019,03,17,05,54,2.90
2019,03,17,05,55,2.90
2019,03,17,05,56,3.00
2019,03,17,05,57,3.00
2019,03,17,05,58,3.10
2019,03,17,05,59,3.20
2019,03,17,06,00,3.30
2019,03,17,06,01,3.40
2019,03,17,06,02,3.50
2019,03,17,06,03,3.60
2019,03,17,06,04,3.60
2019,03,17,06,05,3.70
2019,03,17,06,06,3.70
2019,03,17,06,07,3.70
2019,03,17,06,08,3.70
2019,03,17,06,09,3.80
2019,03,17,06,10,3.80
2019,03,17,06,11,3.80
2019,03,17,06,12,3.80
2019,03,17,06,13,3.80
2019,03,17,06,14,3.80
2019,03,17,06,15,3.80
2019,03,17,06,16,3.80
2019,03,17,06,17,3.80
2019,03,17,06,18,3.80
2019,03,17,06,19,3.70
2019,03,17,06,20,3.70
2019,03,17,06,21,3.70
2019,03,17,06,22,3.70
2019,03,17,06,23,3.70
2019,03,17,06,24,3.70
2019,03,17,06,25,3.70
2019,03,17,06,26,3.70
2019,03,17,06,27,3.70
2019,03,17,06,28,3.60
2019,03,17,06,29,3.60
2019,03,17,06,30,3.60
2019,03,17,06,31,3.60
2019,03,17,06,32,3.60
2019,03,17,06,33,3.50
2019,03,17,06,34,3.50
2019,03,17,06,35,3.50
2019,03,17,06,36,3.40
2019,03,17,06,37,3.40
2019,03,17,06,38,3.40
2019,03,17,06,39,3.40
2019,03,17,06,40,3.30
2019,03,17,06,41,3.30
2019,03,17,06,42,3.30
2019,03,17,06,43,3.30
2019,03,17,06,44,3.30
2019,03,17,06,45,3.30
2019,03,17,06,46,3.30
2019,03,17,06,47,3.20
2019,03,17,06,48,3.20
2019,03,17,06,49,3.20
2019,03,17,06,50,3.20
2019,03,17,06,51,3.30
2019,03,17,06,52,3.30
2019,03,17,06,53,3.30
2019,03,17,06,54,3.30
2019,03,17,06,55,3.30
2019,03,17,06,56,3.30
2019,03,17,06,57,3.40
2019,03,17,06,58,3.40
2019,03,17,06,59,3.40
2019,03,17,07,00,3.40
2019,03,17,07,01,3.40
2019,03,17,07,02,3.50
2019,03,17,07,03,3.50
2019,03,17,07,04,3.60
2019,03,17,07,05,3.60
2019,03,17,07,06,3.60
2019,03,17,07,07,3.60
2019,03,17,07,08,3.70
2019,03,17,07,09,3.70
2019,03,17,07,10,3.70
2019,03,17,07,11,3.70
2019,03,17,07,12,3.70
2019,03,17,07,13,3.80
2019,03,17,07,14,3.90
2019,03,17,07,15,4.00
2019,03,17,07,16,4.10
2019,03,17,07,17,4.30
2019,03,17,07,18,4.40
2019,03,17,07,19,4.50
2019,03,17,07,20,4.60
2019,03,17,07,21,4.60
2019,03,17,07,22,4.60
2019,03,17,07,23,4.60
2019,03,17,07,24,4.60
2019,03,17,07,25,4.50
2019,03,17,07,26,4.50
2019,03,17,07,27,4.50
2019,03,17,07,28,4.50
2019,03,17,07,29,4.40
2019,03,17,07,30,4.30
2019,03,17,07,31,4.20
2019,03,17,07,32,4.00
2019,03,17,07,33,3.80
2019,03,17,07,34,3.70
2019,03,17,07,35,3.60
2019,03,17,07,36,3.60
2019,03,17,07,37,3.70
2019,03,17,07,38,3.90
2019,03,17,07,39,4.10
2019,03,17,07,40,4.20
2019,03,17,07,41,4.40
2019,03,17,07,42,4.50
2019,03,17,07,43,4.70
2019,03,17,07,44,4.80
2019,03,17,07,45,4.80
2019,03,17,07,46,4.90
2019,03,17,07,47,5.00
2019,03,17,07,48,5.00
2019,03,17,07,49,5.00
2019,03,17,07,50,5.10
2019,03,17,07,51,5.20
2019,03,17,07,52,5.20
2019,03,17,07,53,5.30
2019,03,17,07,54,5.40
2019,03,17,07,55,5.50
2019,03,17,07,56,5.60
2019,03,17,07,57,5.60
2019,03,17,07,58,5.60
2019,03,17,07,59,5.40
2019,03,17,08,00,5.30
2019,03,17,08,01,5.20
2019,03,17,08,02,5.00
2019,03,17,08,03,4.90
2019,03,17,08,04,4.90
2019,03,17,08,05,4.90
2019,03,17,08,06,5.10
2019,03,17,08,07,5.20
2019,03,17,08,08,5.40
2019,03,17,08,09,5.50
2019,03,17,08,10,5.60
2019,03,17,08,11,5.70
2019,03,17,08,12,5.70
2019,03,17,08,13,5.70
2019,03,17,08,14,5.70
2019,03,17,08,15,5.60
2019,03,17,08,16,5.60
2019,03,17,08,17,5.50
2019,03,17,08,18,5.50
2019,03,17,08,19,5.40
2019,03,17,08,20,5.40
2019,03,17,08,21,5.30
2019,03,17,08,22,5.20
2019,03,17,08,23,5.10
2019,03,17,08,24,5.00
2019,03,17,08,25,5.00
2019,03,17,08,26,4.90
2019,03,17,08,27,4.90
2019,03,17,08,28,5.00
2019,03,17,08,29,5.00
2019,03,17,08,30,5.00
2019,03,17,08,31,5.00
2019,03,17,08,32,5.00
2019,03,17,08,33,5.20
2019,03,17,08,34,5.40
2019,03,17,08,35,5.70
2019,03,17,08,36,5.90
2019,03,17,08,37,6.20
2019,03,17,08,38,6.40
2019,03,17,08,39,6.60
2019,03,17,08,40,6.80
2019,03,17,08,41,6.90
2019,03,17,08,42,7.10
2019,03,17,08,43,7.20
2019,03,17,08,44,7.30
2019,03,17,08,45,7.40
2019,03,17,08,46,7.50
2019,03,17,08,47,7.50
2019,03,17,08,48,7.60
2019,03,17,08,49,7.60
2019,03,17,08,50,7.70
2019,03,17,08,51,7.80
2019,03,17,08,52,7.80
2019,03,17,08,53,7.90
2019,03,17,08,54,8.00
2019,03,17,08,55,8.00
2019,03,17,08,56,8.10
2019,03,17,08,57,8.20
2019,03,17,08,58,8.30
2019,03,17,08,59,8.30
2019,03,17,09,00,8.40
2019,03,17,09,01,8.40
2019,03,17,09,02,8.50
2019,03,17,09,03,8.60
2019,03,17,09,04,8.60
2019,03,17,09,05,8.70
2019,03,17,09,06,8.80
2019,03,17,09,07,8.90
2019,03,17,09,08,8.90
2019,03,17,09,09,9.00
2019,03,17,09,10,9.00
2019,03,17,09,11,9.10
2019,03,17,09,12,9.10
2019,03,17,09,13,9.20
2019,03,17,09,14,9.20
2019,03,17,09,15,9.20
2019,03,17,09,16,9.20
2019,03,17,09,17,9.30
2019,03,17,09,18,9.30
2019,03,17,09,19,9.30
2019,03,17,09,20,9.30
2019,03,17,09,21,9.40
2019,03,17,09,22,9.40
2019,03,17,09,23,9.40
2019,03,17,09,24,9.50
2019,03,17,09,25,9.50
2019,03,17,09,26,9.50
2019,03,17,09,27,9.50
2019,03,17,09,28,9.50
2019,03,17,09,29,9.40
2019,03,17,09,30,9.40
2019,03,17,09,31,9.40
2019,03,17,09,32,9.40
2019,03,17,09,33,9.50
2019,03,17,09,34,9.50
2019,03,17,09,35,9.60
2019,03,17,09,36,9.60
2019,03,17,09,37,9.70
2019,03,17,09,38,9.70
2019,03,17,09,39,9.70
2019,03,17,09,40,9.80
2019,03,17,09,41,9.80
2019,03,17,09,42,9.80
2019,03,17,09,43,9.80
2019,03,17,09,44,9.80
2019,03,17,09,45,9.80
2019,03,17,09,46,9.80
2019,03,17,09,47,9.80
2019,03,17,09,48,9.90
2019,03,17,09,49,9.90
2019,03,17,09,50,9.90
2019,03,17,09,51,9.90
2019,03,17,09,52,10.00
2019,03,17,09,53,10.00
2019,03,17,09,54,10.00
2019,03,17,09,55,10.10
2019,03,17,09,56,10.10
2019,03,17,09,57,10.20
2019,03,17,09,58,10.20
2019,03,17,09,59,10.20
2019,03,17,10,00,10.20
2019,03,17,10,01,10.30
2019,03,17,10,02,10.30
2019,03,17,10,03,10.40
2019,03,17,10,04,10.50
2019,03,17,10,05,10.60
2019,03,17,10,06,10.60
2019,03,17,10,07,10.70
2019,03,17,10,08,10.80
2019,03,17,10,09,10.80
2019,03,17,10,10,10.80
2019,03,17,10,11,10.80
2019,03,17,10,12,10.70
2019,03,17,10,13,10.70
2019,03,17,10,14,10.70
2019,03,17,10,15,10.70
2019,03,17,10,16,10.70
2019,03,17,10,17,10.70
2019,03,17,10,18,10.70
2019,03,17,10,19,10.80
2019,03,17,10,20,10.80
2019,03,17,10,21,10.90
2019,03,17,10,22,11.00
2019,03,17,10,23,11.00
2019,03,17,10,24,11.00
2019,03,17,10,25,11.10
2019,03,17,10,26,11.10
2019,03,17,10,27,11.10
2019,03,17,10,28,11.00
2019,03,17,10,29,10.90
2019,03,17,10,30,10.90
2019,03,17,10,31,10.80
2019,03,17,10,32,10.80
2019,03,17,10,33,10.70
2019,03,17,10,34,10.60
2019,03,17,10,35,10.60
2019,03,17,10,36,10.60
2019,03,17,10,37,10.60
2019,03,17,10,38,10.60
2019,03,17,10,39,10.60
2019,03,17,10,40,10.50
2019,03,17,10,41,10.50
2019,03,17,10,42,10.50
2019,03,17,10,43,10.50
2019,03,17,10,44,10.40
2019,03,17,10,45,10.50
2019,03,17,10,46,10.50
2019,03,17,10,47,10.50
2019,03,17,10,48,10.40
2019,03,17,10,49,10.40
2019,03,17,10,50,10.40
2019,03,17,10,51,10.50
2019,03,17,10,52,10.50
2019,03,17,10,53,10.50
2019,03,17,10,54,10.60
2019,03,17,10,55,10.60
2019,03,17,10,56,10.60
2019,03,17,10,57,10.60
2019,03,17,10,58,10.50
2019,03,17,10,59,10.40
2019,03,17,11,00,10.30
2019,03,17,11,01,10.20
2019,03,17,11,02,10.20
2019,03,17,11,03,10.20
2019,03,17,11,04,10.20
2019,03,17,11,05,10.20
2019,03,17,11,06,10.10
2019,03,17,11,07,10.10
2019,03,17,11,08,10.10
2019,03,17,11,09,10.10
2019,03,17,11,10,10.20
2019,03,17,11,11,10.30
2019,03,17,11,12,10.40
2019,03,17,11,13,10.40
2019,03,17,11,14,10.30
2019,03,17,11,15,10.30
2019,03,17,11,16,10.20
2019,03,17,11,17,10.30
2019,03,17,11,18,10.30
2019,03,17,11,19,10.30
2019,03,17,11,20,10.30
2019,03,17,11,21,10.30
2019,03,17,11,22,10.30
2019,03,17,11,23,10.40
2019,03,17,11,24,10.30
2019,03,17,11,25,10.30
2019,03,17,11,26,10.30
2019,03,17,11,27,10.30
2019,03,17,11,28,10.40
2019,03,17,11,29,10.40
2019,03,17,11,30,10.50
2019,03,17,11,31,10.40
2019,03,17,11,32,10.40
2019,03,17,11,33,10.40
2019,03,17,11,34,10.40
2019,03,17,11,35,10.40
2019,03,17,11,36,10.40
2019,03,17,11,37,10.40
2019,03,17,11,38,10.50
2019,03,17,11,39,10.60
2019,03,17,11,40,10.60
2019,03,17,11,41,10.60
2019,03,17,11,42,10.70
2019,03,17,11,43,10.70
2019,03,17,11,44,10.80
2019,03,17,11,45,10.80
2019,03,17,11,46,10.90
2019,03,17,11,47,11.00
2019,03,17,11,48,11.20
2019,03,17,11,49,11.20
2019,03,17,11,50,11.30
2019,03,17,11,51,11.40
2019,03,17,11,52,11.50
2019,03,17,11,53,11.50
2019,03,17,11,54,11.40
2019,03,17,11,55,11.30
2019,03,17,11,56,11.20
2019,03,17,11,57,11.20
2019,03,17,11,58,11.20
2019,03,17,11,59,11.10
2019,03,17,12,00,11.20
2019,03,17,12,01,11.20
2019,03,17,12,02,11.20
2019,03,17,12,03,11.30
2019,03,17,12,04,11.40
2019,03,17,12,05,11.40
2019,03,17,12,06,11.40
2019,03,17,12,07,11.30
2019,03,17,12,08,11.30
2019,03,17,12,09,11.40
2019,03,17,12,10,11.50
2019,03,17,12,11,11.50
2019,03,17,12,12,11.60
2019,03,17,12,13,11.60
2019,03,17,12,14,11.50
2019,03,17,12,15,11.50
2019,03,17,12,16,11.40
2019,03,17,12,17,11.50
2019,03,17,12,18,11.50
2019,03,17,12,19,11.60
2019,03,17,12,20,11.70
2019,03,17,12,21,11.70
2019,03,17,12,22,11.70
2019,03,17,12,23,11.70
2019,03,17,12,24,11.70
2019,03,17,12,25,11.70
2019,03,17,12,26,11.70
2019,03,17,12,27,11.60
2019,03,17,12,28,11.60
2019,03,17,12,29,11.60
2019,03,17,12,30,11.60
2019,03,17,12,31,11.60
2019,03,17,12,32,11.70
2019,03,17,12,33,11.80
2019,03,17,12,34,11.90
2019,03,17,12,35,11.90
2019,03,17,12,36,11.90
2019,03,17,12,37,11.90
2019,03,17,12,38,11.90
2019,03,17,12,39,11.90
2019,03,17,12,40,11.90
2019,03,17,12,41,11.90
2019,03,17,12,42,12.00
2019,03,17,12,43,12.10
2019,03,17,12,44,12.10
2019,03,17,12,45,12.10
2019,03,17,12,46,12.10
2019,03,17,12,47,12.10
2019,03,17,12,48,12.20
2019,03,17,12,49,12.10
2019,03,17,12,50,12.10
2019,03,17,12,51,12.00
2019,03,17,12,52,11.90
2019,03,17,12,53,11.90
2019,03,17,12,54,12.00
2019,03,17,12,55,12.10
2019,03,17,12,56,12.20
2019,03,17,12,57,12.30
2019,03,17,12,58,12.30
2019,03,17,12,59,12.20
2019,03,17,13,00,12.20
2019,03,17,13,01,12.20
2019,03,17,13,02,12.20
2019,03,17,13,03,12.30
2019,03,17,13,04,12.30
2019,03,17,13,05,12.30
2019,03,17,13,06,12.40
2019,03,17,13,07,12.50
2019,03,17,13,08,12.50
2019,03,17,13,09,12.60
2019,03,17,13,10,12.60
2019,03,17,13,11,12.60
2019,03,17,13,12,12.70
2019,03,17,13,13,12.60
2019,03,17,13,14,12.60
2019,03,17,13,15,12.60
2019,03,17,13,16,12.70
2019,03,17,13,17,12.80
2019,03,17,13,18,12.80
2019,03,17,13,19,12.80
2019,03,17,13,20,12.80
2019,03,17,13,21,12.80
2019,03,17,13,22,12.80
2019,03,17,13,23,12.80
2019,03,17,13,24,12.80
2019,03,17,13,25,12.90
2019,03,17,13,26,13.00
2019,03,17,13,27,13.10
2019,03,17,13,28,13.10
2019,03,17,13,29,13.10
2019,03,17,13,30,13.10
2019,03,17,13,31,13.00
2019,03,17,13,32,13.00
2019,03,17,13,33,13.00
2019,03,17,13,34,13.00
2019,03,17,13,35,13.10
2019,03,17,13,36,13.20
2019,03,17,13,37,13.20
2019,03,17,13,38,13.30
2019,03,17,13,39,13.30
2019,03,17,13,40,13.30
2019,03,17,13,41,13.30
2019,03,17,13,42,13.30
2019,03,17,13,43,13.40
2019,03,17,13,44,13.50
2019,03,17,13,45,13.50
2019,03,17,13,46,13.50
2019,03,17,13,47,13.50
2019,03,17,13,48,13.50
2019,03,17,13,49,13.40
2019,03,17,13,50,13.30
2019,03,17,13,51,13.20
2019,03,17,13,52,13.20
2019,03,17,13,53,13.10
2019,03,17,13,54,13.10
2019,03,17,13,55,13.10
2019,03,17,13,56,13.10
2019,03,17,13,57,13.20
2019,03,17,13,58,13.20
2019,03,17,13,59,13.20
2019,03,17,14,00,13.10
2019,03,17,14,01,13.10
2019,03,17,14,02,13.10
2019,03,17,14,03,13.10
2019,03,17,14,04,13.20
2019,03,17,14,05,13.30
2019,03,17,14,06,13.30
2019,03,17,14,07,13.40
2019,03,17,14,08,13.40
2019,03,17,14,09,13.40
2019,03,17,14,10,13.30
2019,03,17,14,11,13.30
2019,03,17,14,12,13.30
2019,03,17,14,13,13.30
2019,03,17,14,14,13.20
2019,03,17,14,15,13.10
2019,03,17,14,16,13.10
2019,03,17,14,17,13.10
2019,03,17,14,18,13.10
2019,03,17,14,19,13.10
2019,03,17,14,20,13.20
2019,03,17,14,21,13.20
2019,03,17,14,22,13.30
2019,03,17,14,23,13.30
2019,03,17,14,24,13.30
2019,03,17,14,25,13.20
2019,03,17,14,26,13.20
2019,03,17,14,27,13.20
2019,03,17,14,28,13.10
2019,03,17,14,29,13.10
2019,03,17,14,30,13.20
2019,03,17,14,31,13.30
2019,03,17,14,32,13.30
2019,03,17,14,33,13.20
2019,03,17,14,34,13.30
2019,03,17,14,35,13.30
2019,03,17,14,36,13.30
2019,03,17,14,37,13.30
2019,03,17,14,38,13.40
2019,03,17,14,39,13.40
2019,03,17,14,40,13.50
2019,03,17,14,41,13.50
2019,03,17,14,42,13.60
2019,03,17,14,43,13.70
2019,03,17,14,44,13.60
2019,03,17,14,45,13.60
2019,03,17,14,46,13.60
2019,03,17,14,47,13.60
2019,03,17,14,48,13.60
2019,03,17,14,49,13.70
2019,03,17,14,50,13.70
2019,03,17,14,51,13.80
2019,03,17,14,52,13.80
2019,03,17,14,53,13.80
2019,03,17,14,54,13.80
2019,03,17,14,55,13.70
2019,03,17,14,56,13.70
2019,03,17,14,57,13.80
2019,03,17,14,58,13.90
2019,03,17,14,59,14.00
2019,03,17,15,00,14.10
2019,03,17,15,01,14.10
2019,03,17,15,02,14.10
2019,03,17,15,03,14.00
2019,03,17,15,04,14.00
2019,03,17,15,05,13.90
2019,03,17,15,06,13.90
2019,03,17,15,07,13.90
2019,03,17,15,08,13.90
2019,03,17,15,09,13.90
2019,03,17,15,10,14.00
2019,03,17,15,11,14.00
2019,03,17,15,12,14.00
2019,03,17,15,13,14.00
2019,03,17,15,14,14.10
2019,03,17,15,15,14.10
2019,03,17,15,16,14.10
2019,03,17,15,17,14.10
2019,03,17,15,18,14.10
2019,03,17,15,19,14.00
2019,03,17,15,20,13.90
2019,03,17,15,21,13.90
2019,03,17,15,22,14.00
2019,03,17,15,23,14.10
2019,03,17,15,24,14.20
2019,03,17,15,25,14.30
2019,03,17,15,26,14.40
2019,03,17,15,27,14.40
2019,03,17,15,28,14.50
2019,03,17,15,29,14.50
2019,03,17,15,30,14.50
2019,03,17,15,31,14.50
2019,03,17,15,32,14.40
2019,03,17,15,33,14.40
2019,03,17,15,34,14.30
2019,03,17,15,35,14.30
2019,03,17,15,36,14.30
2019,03,17,15,37,14.40
2019,03,17,15,38,14.50
2019,03,17,15,39,14.60
2019,03,17,15,40,14.70
2019,03,17,15,41,14.70
2019,03,17,15,42,14.70
2019,03,17,15,43,14.80
2019,03,17,15,44,14.80
2019,03,17,15,45,14.70
2019,03,17,15,46,14.60
2019,03,17,15,47,14.60
2019,03,17,15,48,14.70
2019,03,17,15,49,14.70
2019,03,17,15,50,14.70
2019,03,17,15,51,14.70
2019,03,17,15,52,14.80
2019,03,17,15,53,14.80
2019,03,17,15,54,14.90
2019,03,17,15,55,14.90
2019,03,17,15,56,14.80
2019,03,17,15,57,14.80
2019,03,17,15,58,14.90
2019,03,17,15,59,14.90
2019,03,17,16,00,14.90
2019,03,17,16,01,15.00
2019,03,17,16,02,15.00
2019,03,17,16,03,15.10
2019,03,17,16,04,15.10
2019,03,17,16,05,15.00
2019,03,17,16,06,15.00
2019,03,17,16,07,15.00
2019,03,17,16,08,14.90
2019,03,17,16,09,14.80
2019,03,17,16,10,14.80
2019,03,17,16,11,14.80
2019,03,17,16,12,14.70
2019,03,17,16,13,14.70
2019,03,17,16,14,14.70
2019,03,17,16,15,14.60
2019,03,17,16,16,14.60
2019,03,17,16,17,14.60
2019,03,17,16,18,14.70
2019,03,17,16,19,14.70
2019,03,17,16,20,14.60
2019,03,17,16,21,14.50
2019,03,17,16,22,14.50
2019,03,17,16,23,14.40
2019,03,17,16,24,14.40
2019,03,17,16,25,14.40
2019,03,17,16,26,14.40
2019,03,17,16,27,14.50
2019,03,17,16,28,14.50
2019,03,17,16,29,14.60
2019,03,17,16,30,14.60
2019,03,17,16,31,14.60
2019,03,17,16,32,14.70
2019,03,17,16,33,14.70
2019,03,17,16,34,14.70
2019,03,17,16,35,14.70
2019,03,17,16,36,14.70
2019,03,17,16,37,14.70
2019,03,17,16,38,14.70
2019,03,17,16,39,14.70
2019,03,17,16,40,14.70
2019,03,17,16,41,14.80
2019,03,17,16,42,14.80
2019,03,17,16,43,14.80
2019,03,17,16,44,14.90
2019,03,17,16,45,14.90
2019,03,17,16,46,14.90
2019,03,17,16,47,14.90
2019,03,17,16,48,14.90
2019,03,17,16,49,14.80
2019,03,17,16,50,14.70
2019,03,17,16,51,14.70
2019,03,17,16,52,14.70
2019,03,17,16,53,14.70
2019,03,17,16,54,14.70
2019,03,17,16,55,14.70
2019,03,17,16,56,14.60
2019,03,17,16,57,14.60
2019,03,17,16,58,14.50
2019,03,17,16,59,14.50
2019,03,17,17,00,14.60
2019,03,17,17,01,14.60
2019,03,17,17,02,14.60
2019,03,17,17,03,14.70
2019,03,17,17,04,14.80
2019,03,17,17,05,14.80
2019,03,17,17,06,14.80
2019,03,17,17,07,14.80
2019,03,17,17,08,14.70
2019,03,17,17,09,14.70
2019,03,17,17,10,14.70
2019,03,17,17,11,14.70
2019,03,17,17,12,14.70
2019,03,17,17,13,14.80
2019,03,17,17,14,14.80
2019,03,17,17,15,14.80
2019,03,17,17,16,14.80
2019,03,17,17,17,14.80
2019,03,17,17,18,14.80
2019,03,17,17,19,14.80
2019,03,17,17,20,14.90
2019,03,17,17,21,14.80
2019,03,17,17,22,14.80
2019,03,17,17,23,14.80
2019,03,17,17,24,14.80
2019,03,17,17,25,14.80
2019,03,17,17,26,14.80
2019,03,17,17,27,14.80
2019,03,17,17,28,14.80
2019,03,17,17,29,14.80
2019,03,17,17,30,14.80
2019,03,17,17,31,14.80
2019,03,17,17,32,14.80
2019,03,17,17,33,14.90
2019,03,17,17,34,14.90
2019,03,17,17,35,14.90
2019,03,17,17,36,14.90
2019,03,17,17,37,14.90
2019,03,17,17,38,14.90
2019,03,17,17,39,14.90
2019,03,17,17,40,14.80
2019,03,17,17,41,14.80
2019,03,17,17,42,14.80
2019,03,17,17,43,14.80
2019,03,17,17,44,14.80
2019,03,17,17,45,14.80